[[{"header":{"parameterUnit":"m.s-1","parameterCategory":1,"la1":30.2991,"la2":30.254,"lo1":-89.0895,"lo2":-89.0444,"dy":0.0017,"dx":0.0017,"nx":28,"ny":28,"refTime":"2023-09-22T03:00:00:Z","depth":0,"parameterNumber":2,"parameterNumberName":"U-component_of_WINDS"},"data":[0,0,0,0,0,0,0,0,0,0,0,0,0,0,0,0,0,0,0,0,0,0,0,0,0,0,0,0,0,0,0,0,0,0,0,0,0,0,0,0,0,0,0,0,0,0,0,0,0,0,0,0,0,0,0,0,0,0,-1.1465,-1.1464,0,-1.1369,-1.1368,-1.1367,-1.1298,-1.1298,-1.1297,-1.1297,-1.1199,-1.1197,-1.1195,0,0,0,0,0,0,0,0,0,0,0,0,0,-1.159,-1.1588,-1.1465,-1.1463,-1.1462,-1.1369,-1.1368,-1.1366,-1.1298,-1.1298,-1.1297,-1.1296,-1.1199,-1.1197,-1.1194,0,0,0,0,0,0,0,0,0,0,0,0,0,-1.1519,-1.1587,-1.1465,-1.1417,-1.1412,-1.1369,-1.1368,-1.1366,-1.1298,-1.1298,-1.1297,-1.1296,-1.12,-1.1197,-1.1194,-1.1192,0,0,-1.1185,-1.1183,0,0,0,0,0,0,0,0,-1.1523,-1.1514,-1.1425,-1.142,-1.1414,-1.1345,-1.1376,-1.1308,-1.1299,-1.1342,-1.1297,-1.1296,-1.1248,-1.1241,-1.1225,-1.1187,-1.1183,-1.1184,-1.1182,-1.1181,-1.118,0,0,0,0,0,0,0,-1.1528,-1.1518,-1.1427,-1.1424,-1.1417,-1.1401,-1.139,-1.1363,-1.1301,-1.1338,-1.1333,-1.1322,-1.1245,-1.1228,-1.1222,-1.1181,-1.1184,-1.1182,-1.118,-1.1178,-1.114,-1.114,0,0,0,0,0,0,-1.154,-1.1523,-1.143,-1.1424,-1.1468,-1.1399,-1.1387,-1.1368,-1.1301,-1.129,-1.1323,-1.1319,-1.1234,-1.1226,-1.1218,-1.1213,-1.1181,-1.1178,-1.1176,-1.1139,-1.114,-1.1141,0,0,0,0,0,0,-1.1543,-1.1533,-1.1434,-1.1472,-1.1458,-1.1398,-1.1377,-1.1366,-1.1349,-1.129,-1.1278,-1.1317,-1.1233,-1.1223,-1.1199,-1.1209,-1.1177,-1.1174,-1.1138,-1.1139,-1.114,-1.1201,0,0,0,0,0,0,-1.1547,-1.1534,-1.1532,-1.1472,-1.1456,-1.1416,-1.1378,-1.1365,-1.1344,-1.1339,-1.1281,-1.1271,-1.1231,-1.1204,-1.1196,-1.1204,-1.1171,-1.1137,-1.1138,-1.114,-1.1198,-1.1205,-1.121,0,0,0,0,0,-1.1552,-1.1553,-1.1532,-1.1522,-1.1452,-1.1417,-1.1407,-1.1362,-1.1345,-1.1343,-1.1305,-1.1273,-1.1209,-1.1203,-1.1193,-1.12,-1.1136,-1.1138,-1.114,-1.1196,-1.1203,-1.121,0,0,0,0,0,0,-1.1614,-1.1544,-1.1521,-1.1502,-1.1466,-1.1405,-1.1401,-1.1371,-1.1339,-1.1335,-1.128,-1.1268,-1.1251,-1.1222,-1.1217,-1.1195,-1.1168,-1.1169,-1.1214,-1.1221,-1.1227,-1.1235,-1.1169,0,0,0,0,0,-1.1626,-1.1603,-1.1542,-1.1532,-1.1515,-1.1462,-1.1444,-1.1412,-1.1373,-1.1357,-1.1317,-1.1281,-1.1252,-1.1235,-1.1205,-1.1194,-1.1181,-1.1193,-1.1199,-1.1204,-1.1206,-1.12,-1.1205,-1.1147,-1.1147,-1.1147,0,0,-1.165,-1.1608,-1.1597,-1.1543,-1.1512,-1.149,-1.1449,-1.1427,-1.141,-1.1354,-1.133,-1.13,-1.1255,-1.1238,-1.1229,-1.1214,-1.1219,-1.1207,-1.1211,-1.121,-1.1202,-1.1208,-1.1213,-1.1148,-1.1148,-1.1148,0,0,-1.1683,-1.1648,-1.1637,-1.1606,-1.1559,-1.1524,-1.1521,-1.1465,-1.1443,-1.1418,-1.1377,-1.1356,-1.1308,-1.1279,-1.1258,-1.1282,-1.1251,-1.1273,-1.1304,-1.13,-1.1304,-1.1308,-1.1319,-1.1323,-1.1274,-1.1275,-1.1275,0,-1.1718,-1.1683,-1.1634,-1.1615,-1.1594,-1.1542,-1.1531,-1.1504,-1.145,-1.1437,-1.1421,-1.1361,-1.1327,-1.1304,-1.131,-1.1294,-1.1291,-1.128,-1.1307,-1.1311,-1.1314,-1.1323,-1.1327,-1.1278,-1.1277,-1.1277,-1.1277,0,-1.173,-1.1707,-1.1703,-1.1653,-1.1631,-1.1616,-1.1566,-1.155,-1.152,-1.1487,-1.1464,-1.1422,-1.1384,-1.1376,-1.1346,-1.135,-1.1342,-1.1318,-1.129,-1.1323,-1.1332,-1.1335,-1.1282,-1.1281,-1.128,-1.1279,0,0,-1.1799,-1.1724,-1.1724,-1.1702,-1.1647,-1.1628,-1.1611,-1.1575,-1.1563,-1.1527,-1.1513,-1.1475,-1.1453,-1.1429,-1.1396,-1.1391,-1.1416,-1.1367,-1.1365,-1.138,-1.142,-1.144,-1.1445,-1.1395,-1.1396,-1.1396,-1.1424,0,-1.1825,-1.1793,-1.1749,-1.1732,-1.1711,-1.1662,-1.1648,-1.1614,-1.1583,-1.1561,-1.1526,-1.1501,-1.1472,-1.1458,-1.1451,-1.1415,-1.1424,-1.1412,-1.1383,-1.1383,-1.1398,-1.1449,-1.147,-1.1499,-1.1427,-1.1427,-1.1428,0,-1.1851,-1.1819,-1.18,-1.1749,-1.1738,-1.1727,-1.1691,-1.167,-1.1631,-1.1608,-1.1583,-1.1548,-1.1529,-1.1504,-1.1479,-1.1472,-1.1458,-1.1438,-1.1438,-1.1435,-1.1409,-1.145,-1.1506,-1.1512,-1.1432,-1.1432,-1.1431,0,-1.1906,-1.1858,-1.1841,-1.1824,-1.1763,-1.1756,-1.1731,-1.169,-1.1672,-1.1641,-1.1629,-1.1596,-1.1578,-1.1554,-1.1512,-1.1497,-1.1493,-1.1463,-1.1475,-1.1477,-1.1477,-1.1478,-1.1535,-1.1465,-1.1465,-1.1465,-1.1465,0,-1.194,-1.1931,-1.1866,-1.1856,-1.1845,-1.1795,-1.1786,-1.1756,-1.1721,-1.1705,-1.166,-1.1646,-1.159,-1.157,-1.1536,-1.1522,-1.1514,-1.1497,-1.1489,-1.1502,-1.1505,-1.1493,-1.1491,-1.1466,-1.1466,-1.1466,-1.1466,0,-1.2001,-1.1956,-1.1935,-1.188,-1.1866,-1.1861,-1.1814,-1.1803,-1.1769,-1.175,-1.1743,-1.1691,-1.1665,-1.162,-1.1581,-1.1559,-1.1552,-1.1536,-1.1566,-1.1561,-1.1577,-1.1577,-1.163,-1.1635,-1.1561,-1.1561,-1.1562,0,-1.2026,-1.2018,-1.1963,-1.1949,-1.1926,-1.1904,-1.1885,-1.1837,-1.1819,-1.1775,-1.177,-1.1741,-1.1715,-1.1677,-1.1636,-1.1607,-1.1591,-1.1612,-1.1587,-1.1602,-1.1595,-1.1597,-1.1597,-1.1618,-1.1619,-1.162,-1.1621,0,-1.2078,-1.2057,-1.2032,-1.2,-1.1979,-1.1951,-1.1921,-1.1913,-1.1858,-1.1841,-1.1814,-1.1795,-1.1756,-1.1728,-1.1694,-1.1668,-1.1637,-1.1629,-1.1631,-1.1646,-1.1664,-1.1657,-1.1584,-1.1628,-1.1628,-1.1627,-1.1627,-1.1626,-1.2123,-1.2114,-1.2075,-1.2049,-1.2022,-1.1996,-1.1983,-1.1949,-1.1926,-1.1891,-1.1863,-1.184,-1.1803,-1.1753,-1.1729,-1.1711,-1.1696,-1.1698,-1.1699,-1.1701,-1.1707,-1.1666,-1.1704,-1.1704,-1.1704,-1.1703,-1.1703,0,-1.2174,-1.2146,-1.2123,-1.2084,-1.2064,-1.2035,-1.2001,-1.1987,-1.1967,-1.1934,-1.1911,-1.1882,-1.1855,-1.1813,-1.1784,-1.1777,-1.1762,-1.1772,-1.1773,-1.1768,-1.1721,-1.1723,-1.1785,-1.1784,-1.1784,-1.1784,-1.1784,-1.1784,-1.2198,-1.2184,-1.2158,-1.213,-1.2102,-1.2079,-1.2063,-1.2039,-1.2013,-1.1983,-1.1961,-1.1934,-1.1898,-1.1866,-1.1841,-1.183,-1.1822,-1.1837,-1.1821,-1.1778,-1.1771,-1.1764,-1.1766,-1.1835,-1.1835,-1.187,-1.187,-1.187]},{"header":{"parameterUnit":"m.s-1","parameterCategory":1,"la1":30.2991,"la2":30.254,"lo1":-89.0895,"lo2":-89.0444,"dy":0.0017,"dx":0.0017,"nx":28,"ny":28,"refTime":"2023-09-22T03:00:00:Z","depth":0,"parameterNumber":3,"parameterNumberName":"V-component_of_WINDS"},"data":[0,0,0,0,0,0,0,0,0,0,0,0,0,0,0,0,0,0,0,0,0,0,0,0,0,0,0,0,0,0,0,0,0,0,0,0,0,0,0,0,0,0,0,0,0,0,0,0,0,0,0,0,0,0,0,0,0,0,1.3784,1.3783,0,1.3742,1.3741,1.3741,1.3661,1.3659,1.3658,1.3656,1.3613,1.3613,1.3613,0,0,0,0,0,0,0,0,0,0,0,0,0,1.3792,1.3792,1.3784,1.3783,1.3783,1.3742,1.3741,1.3741,1.3661,1.3659,1.3657,1.3656,1.3613,1.3613,1.3613,0,0,0,0,0,0,0,0,0,0,0,0,0,1.3773,1.3792,1.3784,1.3738,1.3734,1.3742,1.3741,1.3741,1.3662,1.3659,1.3657,1.3655,1.3612,1.3613,1.3613,1.3663,0,0,1.3615,1.3615,0,0,0,0,0,0,0,0,1.3774,1.3773,1.3745,1.3741,1.3736,1.3704,1.3728,1.3714,1.3662,1.3689,1.3656,1.3654,1.3645,1.3643,1.364,1.3661,1.3659,1.3615,1.3615,1.3615,1.3615,0,0,0,0,0,0,0,1.3776,1.3774,1.3767,1.3745,1.3739,1.3719,1.3713,1.3725,1.3681,1.3686,1.3681,1.3677,1.3642,1.364,1.3638,1.3658,1.3615,1.3615,1.3615,1.3615,1.3712,1.3714,0,0,0,0,0,0,1.3784,1.3776,1.3768,1.3766,1.375,1.372,1.3715,1.3717,1.368,1.3672,1.3679,1.3673,1.364,1.3638,1.3636,1.3687,1.3615,1.3615,1.3616,1.371,1.3712,1.3715,0,0,0,0,0,0,1.3784,1.3784,1.377,1.3769,1.3766,1.3723,1.3726,1.3717,1.3715,1.3674,1.3666,1.3685,1.3638,1.3636,1.3655,1.3685,1.3616,1.3616,1.3707,1.3711,1.3714,1.3792,0,0,0,0,0,0,1.3785,1.3785,1.3804,1.377,1.3766,1.3791,1.3728,1.3718,1.3716,1.3708,1.3678,1.367,1.3636,1.3655,1.3656,1.3684,1.3616,1.3704,1.3709,1.3713,1.3787,1.3798,1.3808,0,0,0,0,0,1.3786,1.3828,1.3805,1.3805,1.3789,1.3793,1.3791,1.375,1.3719,1.3736,1.371,1.3671,1.3683,1.3658,1.3658,1.3687,1.3702,1.3707,1.3712,1.3782,1.3796,1.3807,0,0,0,0,0,0,1.3867,1.3823,1.3797,1.383,1.3816,1.378,1.3801,1.3767,1.3761,1.3754,1.3705,1.3698,1.3724,1.3708,1.3682,1.373,1.3686,1.3691,1.3739,1.3751,1.3762,1.3763,1.3617,0,0,0,0,0,1.3889,1.3896,1.3858,1.3891,1.3885,1.3844,1.3845,1.3815,1.3798,1.3791,1.3766,1.3751,1.375,1.3751,1.3748,1.3786,1.3775,1.3805,1.3815,1.3824,1.3828,1.3842,1.3853,1.3732,1.3732,1.3732,0,0,1.3934,1.3911,1.3918,1.3906,1.3891,1.3898,1.384,1.3851,1.3854,1.3793,1.3808,1.379,1.3769,1.3796,1.3807,1.3784,1.386,1.3831,1.3838,1.3837,1.3848,1.3859,1.387,1.3735,1.3735,1.3734,0,0,1.4018,1.4003,1.4027,1.4013,1.3991,1.3964,1.397,1.3938,1.3923,1.3938,1.3891,1.3895,1.3896,1.3882,1.3875,1.3952,1.3914,1.3953,1.4005,1.4019,1.4028,1.4036,1.4059,1.4068,1.3958,1.3958,1.3958,0,1.4076,1.4085,1.4043,1.4056,1.405,1.3995,1.4017,1.4006,1.3984,1.3981,1.3956,1.3953,1.3936,1.3957,1.3975,1.3973,1.3975,1.3954,1.4031,1.4038,1.4045,1.4066,1.4075,1.3962,1.3962,1.3961,1.3961,0,1.4155,1.4162,1.4184,1.4163,1.416,1.4178,1.4137,1.414,1.4111,1.4085,1.41,1.4077,1.4066,1.407,1.4043,1.4086,1.4072,1.404,1.3993,1.4062,1.408,1.4088,1.3969,1.3967,1.3966,1.3965,0,0,1.4287,1.4242,1.425,1.4238,1.421,1.4214,1.4228,1.4218,1.4219,1.4207,1.4214,1.4216,1.4185,1.4177,1.4147,1.416,1.4216,1.4125,1.4124,1.4139,1.4257,1.4278,1.4288,1.4193,1.4195,1.4196,1.4257,0,1.4361,1.4381,1.4344,1.4373,1.4376,1.4324,1.4335,1.4318,1.4295,1.4294,1.4269,1.4268,1.423,1.4224,1.4235,1.4207,1.4239,1.4203,1.4196,1.4197,1.4198,1.4299,1.4322,1.4381,1.4265,1.4266,1.4267,0,1.4449,1.4439,1.4468,1.4435,1.4435,1.4446,1.4432,1.4433,1.4411,1.4393,1.4384,1.4348,1.4357,1.4316,1.4326,1.4302,1.4298,1.4284,1.4285,1.4279,1.4233,1.4291,1.4399,1.4406,1.4279,1.4278,1.4277,0,1.4536,1.4531,1.4546,1.4538,1.4501,1.4509,1.4494,1.4471,1.4466,1.4454,1.4449,1.444,1.4433,1.4425,1.4386,1.4361,1.4399,1.4356,1.4381,1.4382,1.4388,1.4388,1.4493,1.4394,1.4394,1.4394,1.4394,0,1.4619,1.4638,1.4584,1.4593,1.4611,1.4568,1.4587,1.4567,1.4546,1.4548,1.4504,1.4507,1.4459,1.4457,1.4427,1.4437,1.4436,1.4419,1.441,1.442,1.4422,1.4413,1.4406,1.4396,1.4396,1.4395,1.4395,0,1.4717,1.4683,1.4695,1.4659,1.465,1.4664,1.4632,1.4638,1.4612,1.4616,1.4615,1.4574,1.4568,1.453,1.4517,1.4497,1.4516,1.4501,1.4522,1.4515,1.4541,1.4538,1.4641,1.465,1.455,1.4552,1.4552,0,1.477,1.4783,1.4748,1.4746,1.4733,1.4732,1.4726,1.4684,1.468,1.4655,1.4663,1.4654,1.4644,1.4637,1.4605,1.4594,1.4575,1.4612,1.4573,1.4582,1.457,1.4568,1.4567,1.4619,1.4621,1.4622,1.4623,0,1.4867,1.4848,1.4842,1.4829,1.4824,1.4812,1.4797,1.4799,1.4752,1.4749,1.4742,1.4735,1.472,1.471,1.4692,1.4675,1.464,1.4636,1.464,1.4648,1.4658,1.4648,1.454,1.4633,1.4632,1.4631,1.463,1.463,1.494,1.4947,1.4923,1.4916,1.4901,1.4888,1.489,1.4864,1.4858,1.4842,1.4818,1.4814,1.479,1.4763,1.4748,1.4743,1.4723,1.4731,1.4732,1.4733,1.4737,1.4663,1.4741,1.474,1.474,1.474,1.4739,0,1.503,1.5011,1.5006,1.4986,1.498,1.495,1.4931,1.4928,1.4925,1.4906,1.4897,1.4887,1.4877,1.4845,1.483,1.4832,1.4815,1.4829,1.4826,1.4822,1.4758,1.4753,1.4843,1.4843,1.4843,1.4843,1.4843,1.4843,1.5075,1.5084,1.5063,1.5063,1.5044,1.504,1.5031,1.5018,1.5001,1.4993,1.4984,1.4963,1.4938,1.4921,1.4909,1.49,1.4894,1.4913,1.4898,1.4837,1.4827,1.4818,1.4812,1.4913,1.4914,1.4962,1.4962,1.4962]}]]